Overview Statistics Trail Chart Weather Telemetry Raw packets
 

This is the latest recevied weather packets stored in our database for station/object ED1ZAI-13. If no packets are shown the sender has not sent any weather packets the latest 10 day(s).

<< 26 27 28 29 30 31 32 >>
Time Temp. Humidity Pressure Rain* Wind** Luminosity Snow
1788213608 17.78° C 58% 1009.2 hPa - - - -
1788210006 18.33° C 56% 1015.4 hPa - - - -
1788209405 18.33° C 56% 1015.4 hPa - - - -
1788208805 18.33° C 56% 1015.8 hPa - - - -
1788208205 18.89° C 55% 1016.7 hPa - - - -
1788207605 18.89° C 55% 1017.6 hPa - - - -
1788207006 19.44° C 53% 1018.2 hPa - - - -
1788206406 19.44° C 53% 1018.2 hPa - - - -
1788205806 20° C 52% 1018.3 hPa - - - -
1788205205 20.56° C 50% 1018.4 hPa - - - -
1788204605 20.56° C 49% 1018.4 hPa - - - -
1788203863 21.11° C 47% 1018.3 hPa - - - -
1788203264 21.67° C 46% 1018.2 hPa - - - -
1788202664 22.22° C 45% 1018.3 hPa - - - -
1788202064 22.22° C 44% 1018.1 hPa - - - -
1788201463 22.78° C 43% 1018.2 hPa - - - -
1788200863 23.33° C 41% 1018.3 hPa - - - -
1788200263 23.89° C 39% 1018.8 hPa - - - -
1788199663 24.44° C 37% 1018.8 hPa - - - -
1788199064 25.56° C 34% 1019.1 hPa - - - -
1788198464 25° C 34% 1018.9 hPa - - - -
1788197864 25.56° C 32% 1019 hPa - - - -
1788197264 26.11° C 32% 1019 hPa - - - -
1788196663 26.67° C 32% 1018.8 hPa - - - -
1788196063 26.67° C 30% 1018.9 hPa - - - -

* Rain since midnight (hover to see other rain measurements)
** Current wind speed in m/s (hover to see current wind gust speed)